Location: Unspecified
(0.0000°N, 0.0000°E)
Time: 22:20:15
(UTC+00:00)

Tandem-X - Visible Passes

Search period start: 31 March 2023 00:00
Search period end: 10 April 2023 00:00
Orbit: 507 x 510 km, 97.4° (Epoch: 30 March)

Date Brightness Start Highest point End Pass type
(mag) Time Alt. Az. Time Alt. Az. Time Alt. Az.
02 Apr 7.6 05:28:57 10° NE 05:32:08 28° ESE 05:35:21 10° SSE visible
02 Apr 8.8 18:56:26 10° WSW 18:57:19 11° WSW 18:58:11 10° W visible
03 Apr 8.4 05:12:53 10° ENE 05:15:05 15° ESE 05:17:17 10° SE visible
03 Apr 8.2 18:37:29 10° SSW 18:40:15 20° WSW 18:43:00 10° NW visible
07 Apr 6.9 05:36:51 10° NNE 05:40:19 37° ESE 05:43:47 10° S visible
08 Apr 8.1 05:20:24 10° NE 05:23:11 20° ESE 05:25:58 10° SSE visible
08 Apr 8.4 18:46:08 10° SW 18:48:18 15° WSW 18:50:27 10° WNW visible
09 Apr 8.7 05:05:04 10° E 05:06:02 11° ESE 05:07:01 10° ESE visible
09 Apr 7.6 18:27:57 10° SSW 18:31:09 27° WSW 18:34:20 10° NW visible
